TimeEST,TemperatureF,Dew PointF,Humidity,Sea Level PressureIn,VisibilityMPH,Wind Direction,Wind SpeedMPH,Gust SpeedMPH,PrecipitationIn,Events,Conditions,WindDirDegrees,DateUTC
12:31 AM,44.6,37.4,76,29.77,10.0,NNW,11.5,-,N/A,,Overcast,330,2013-02-14 05:31:00
12:54 AM,44.1,37.0,76,29.79,10.0,NW,11.5,17.3,N/A,,Overcast,320,2013-02-14 05:54:00
1:06 AM,44.6,35.6,71,29.79,10.0,NW,9.2,19.6,N/A,,Overcast,310,2013-02-14 06:06:00
1:16 AM,44.6,35.6,71,29.80,10.0,NNW,6.9,-,N/A,,Overcast,330,2013-02-14 06:16:00
1:42 AM,42.8,35.6,76,29.82,10.0,NW,12.7,-,N/A,,Mostly Cloudy,320,2013-02-14 06:42:00
1:54 AM,43.0,36.0,76,29.83,10.0,NW,8.1,-,N/A,,Overcast,310,2013-02-14 06:54:00
2:54 AM,42.1,34.0,73,29.85,10.0,NNW,6.9,-,N/A,,Overcast,340,2013-02-14 07:54:00
3:31 AM,41.0,33.8,76,29.86,9.0,NNW,9.2,-,N/A,,Scattered Clouds,340,2013-02-14 08:31:00
3:54 AM,39.9,33.1,77,29.88,8.0,WNW,4.6,-,N/A,,Mostly Cloudy,300,2013-02-14 08:54:00
4:08 AM,39.2,33.8,81,29.88,8.0,Calm,Calm,-,N/A,,Scattered Clouds,0,2013-02-14 09:08:00
4:54 AM,37.9,32.0,79,29.92,6.0,NW,5.8,-,N/A,,Haze,310,2013-02-14 09:54:00
5:54 AM,37.0,32.0,82,29.94,5.0,NW,3.5,-,N/A,,Haze,320,2013-02-14 10:54:00
6:54 AM,37.0,30.9,79,29.97,4.0,Calm,Calm,-,N/A,,Haze,0,2013-02-14 11:54:00
7:54 AM,39.0,32.0,76,29.99,4.0,Calm,Calm,-,N/A,,Haze,0,2013-02-14 12:54:00
8:54 AM,44.1,32.0,63,30.01,10.0,NNW,9.2,-,N/A,,Clear,340,2013-02-14 13:54:00
9:54 AM,48.0,32.0,54,30.03,10.0,NNE,6.9,-,N/A,,Clear,30,2013-02-14 14:54:00
10:54 AM,48.9,30.0,48,30.03,10.0,Variable,4.6,-,N/A,,Clear,0,2013-02-14 15:54:00
11:54 AM,50.0,28.9,44,30.03,10.0,Variable,4.6,-,N/A,,Partly Cloudy,0,2013-02-14 16:54:00
12:54 PM,48.9,28.9,46,30.01,10.0,Calm,Calm,-,N/A,,Mostly Cloudy,0,2013-02-14 17:54:00
1:54 PM,51.1,28.0,41,30.01,10.0,WSW,8.1,-,N/A,,Scattered Clouds,250,2013-02-14 18:54:00
2:54 PM,51.1,27.0,39,30.01,10.0,SW,5.8,-,N/A,,Clear,220,2013-02-14 19:54:00
3:54 PM,50.0,28.0,43,30.01,10.0,Calm,Calm,-,N/A,,Partly Cloudy,0,2013-02-14 20:54:00
4:54 PM,50.0,30.0,46,30.01,10.0,West,4.6,-,N/A,,Mostly Cloudy,270,2013-02-14 21:54:00
5:54 PM,45.0,33.1,63,30.02,10.0,ESE,5.8,-,N/A,,Clear,110,2013-02-14 22:54:00
6:54 PM,42.1,33.1,70,30.04,9.0,Calm,Calm,-,N/A,,Clear,0,2013-02-14 23:54:00
7:54 PM,41.0,32.0,70,30.04,7.0,Calm,Calm,-,N/A,,Clear,0,2013-02-15 00:54:00
8:54 PM,43.0,34.0,71,30.06,7.0,SSE,6.9,-,N/A,,Clear,150,2013-02-15 01:54:00
9:54 PM,43.0,34.0,71,30.07,7.0,South,5.8,-,N/A,,Clear,170,2013-02-15 02:54:00
10:54 PM,41.0,34.0,76,30.08,6.0,South,4.6,-,N/A,,Haze,180,2013-02-15 03:54:00
11:54 PM,41.0,35.1,79,30.07,7.0,SSW,4.6,-,N/A,,Clear,210,2013-02-15 04:54:00